| time (UTC) | temp C | wind direction | speed KPH | gust KPH | rain 1hr cm | rain 24hr cm | rain mn cm | humidity % | barometer mb |
| 20260906121556 | 22 | 152 | 0.0 | 0.0 | 0.00 | 0.00 | 0.00 | 88 | 1010.4 |
| 20260906120110 | 22 | 152 | 0.0 | 0.0 | 0.00 | 0.00 | 0.00 | 89 | 1010.2 |
| 20260906114548 | 21 | 152 | 0.0 | 0.0 | 0.00 | 0.00 | 0.00 | 90 | 1009.9 |
| 20260906113051 | 22 | 152 | 0.0 | 0.0 | 0.00 | 0.00 | 0.00 | 90 | 1009.6 |
| 20260906111559 | 22 | 152 | 0.0 | 0.0 | 0.00 | 0.00 | 0.00 | 90 | 1009.4 |
| 20260906110044 | 21 | 151 | 0.0 | 0.0 | 0.00 | 0.00 | 0.00 | 89 | 1009.3 |
| 20260906104541 | 22 | 152 | 0.0 | 0.0 | 0.00 | 0.00 | 0.00 | 89 | 1009.1 |
| 20260906103043 | 22 | 152 | 0.0 | 0.0 | 0.00 | 0.00 | 0.00 | 88 | 1008.9 |
| 20260906101539 | 22 | 152 | 0.0 | 0.0 | 0.00 | 0.00 | 0.00 | 87 | 1008.8 |
| 20260906100036 | 22 | 152 | 0.0 | 0.0 | 0.00 | 0.00 | 0.00 | 85 | 1008.7 |
| 20260906094539 | 23 | 152 | 0.0 | 0.0 | 0.00 | 0.00 | 0.00 | 85 | 1008.7 |
| 20260906093039 | 23 | 150 | 0.0 | 0.0 | 0.00 | 0.00 | 0.00 | 83 | 1008.6 |
| 20260906091536 | 23 | 192 | 0.0 | 0.0 | 0.00 | 0.00 | 0.00 | 83 | 1008.5 |
| 20260906090034 | 23 | 192 | 0.0 | 0.0 | 0.00 | 0.00 | 0.00 | 84 | 1008.5 |
| 20260906084543 | 23 | 192 | 0.0 | 0.0 | 0.00 | 0.00 | 0.00 | 82 | 1008.5 |
| 20260906083035 | 23 | 192 | 0.0 | 4.8 | 0.00 | 0.00 | 0.00 | 81 | 1008.4 |
| 20260906081530 | 23 | 192 | 0.0 | 1.6 | 0.00 | 0.00 | 0.00 | 81 | 1008.3 |
| 20260906080031 | 23 | 192 | 0.0 | 3.2 | 0.00 | 0.00 | 0.00 | 79 | 1008.4 |
| 20260906074525 | 24 | 183 | 0.0 | 6.4 | 0.00 | 0.00 | 0.00 | 79 | 1008.5 |
| 20260906073028 | 24 | 181 | 3.2 | 8.0 | 0.00 | 0.00 | 0.00 | 78 | 1008.8 |
| 20260906071523 | 24 | 166 | 1.6 | 11.3 | 0.00 | 0.00 | 0.00 | 77 | 1008.7 |
| 20260906070025 | 24 | 178 | 4.8 | 8.0 | 0.00 | 0.00 | 0.00 | 78 | 1008.5 |
| 20260906064521 | 24 | 138 | 0.0 | 4.8 | 0.00 | 0.00 | 0.00 | 76 | 1008.6 |
| 20260906063020 | 24 | 144 | 0.0 | 0.0 | 0.00 | 0.00 | 0.00 | 76 | 1008.6 |
| 20260906061518 | 25 | 144 | 0.0 | 4.8 | 0.00 | 0.00 | 0.00 | 75 | 1008.7 |
| 20260906060019 | 24 | 145 | 3.2 | 8.0 | 0.00 | 0.00 | 0.00 | 76 | 1008.9 |
| 20260906054517 | 24 | 132 | 1.6 | 4.8 | 0.00 | 0.00 | 0.00 | 76 | 1008.9 |
| 20260906053014 | 24 | 132 | 0.0 | 0.0 | 0.00 | 0.00 | 0.00 | 76 | 1009.0 |
| 20260906051512 | 25 | 132 | 0.0 | 3.2 | 0.00 | 0.00 | 0.00 | 77 | 1009.2 |
| 20260906050009 | 25 | 132 | 0.0 | 4.8 | 0.00 | 0.00 | 0.00 | 75 | 1009.2 |
| 20260906044513 | 25 | 126 | 3.2 | 4.8 | 0.00 | 0.00 | 0.00 | 75 | 1009.2 |
| 20260906043007 | 25 | 74 | 0.0 | 3.2 | 0.00 | 0.00 | 0.00 | 74 | 1009.4 |
| 20260906041507 | 26 | 69 | 0.0 | 4.8 | 0.00 | 0.00 | 0.00 | 72 | 1009.2 |
| 20260906040009 | 26 | 63 | 4.8 | 19.3 | 0.00 | 0.00 | 0.00 | 71 | 1009.4 |
| 20260906034511 | 27 | 64 | 8.0 | 19.3 | 0.00 | 0.00 | 0.00 | 72 | 1009.7 |
| 20260906033021 | 27 | 45 | 4.8 | 11.3 | 0.00 | 0.00 | 0.00 | 74 | 1009.6 |
| 20260906031504 | 27 | 329 | 0.0 | 4.8 | 0.00 | 0.00 | 0.00 | 76 | 1009.2 |
| 20260906030005 | 27 | 329 | 0.0 | 0.0 | 0.00 | 0.00 | 0.00 | 74 | 1008.9 |
| 20260906024503 | 27 | 328 | 0.0 | 0.0 | 0.00 | 0.00 | 0.00 | 75 | 1008.3 |
| 20260906023002 | 27 | 328 | 0.0 | 0.0 | 0.00 | 0.00 | 0.00 | 75 | 1008.3 |
| 20260906021503 | 27 | 329 | 0.0 | 0.0 | 0.00 | 0.00 | 0.00 | 72 | 1008.1 |
| 20260906020002 | 28 | 329 | 0.0 | 0.0 | 0.00 | 0.00 | 0.00 | 70 | 1008.0 |
| 20260906014505 | 28 | 329 | 1.6 | 4.8 | 0.00 | 0.00 | 0.00 | 70 | 1007.8 |
| 20260906013101 | 28 | 303 | 0.0 | 3.2 | 0.00 | 0.00 | 0.00 | 70 | 1007.6 |
| 20260906011501 | 28 | 303 | 0.0 | 3.2 | 0.00 | 0.00 | 0.00 | 69 | 1007.3 |
| 20260906010118 | 28 | 303 | 0.0 | 3.2 | 0.00 | 0.00 | 0.00 | 69 | 1007.5 |
| 20260906004605 | 29 | 303 | 0.0 | 3.2 | 0.00 | 0.00 | 0.00 | 67 | 1007.3 |
| 20260906003112 | 30 | 303 | 0.0 | 0.0 | 0.00 | 0.00 | 0.00 | 64 | 1007.6 |
| 20260906001558 | 31 | 303 | 0.0 | 0.0 | 0.00 | 0.00 | 0.00 | 62 | 1007.5 |
| 20260906000104 | 31 | 303 | 0.0 | 0.0 | 0.00 | 0.00 | 0.00 | 58 | 1007.7 |
| 20260905234606 | 32 | 303 | 0.0 | 0.0 | 0.00 | 0.00 | 0.00 | 54 | 1007.7 |
| 20260905233059 | 33 | 303 | 0.0 | 3.2 | 0.00 | 0.00 | 0.00 | 53 | 1007.6 |
| 20260905231557 | 34 | 302 | 1.6 | 4.8 | 0.00 | 0.00 | 0.00 | 47 | 1007.6 |
| 20260905230056 | 35 | 335 | 0.0 | 6.4 | 0.00 | 0.00 | 0.00 | 47 | 1007.6 |
| 20260905224555 | 35 | 329 | 1.6 | 8.0 | 0.00 | 0.00 | 0.00 | 45 | 1007.4 |
| 20260905223054 | 35 | 327 | 3.2 | 16.1 | 0.00 | 0.00 | 0.00 | 45 | 1007.4 |
| 20260905221553 | 36 | 330 | 1.6 | 14.5 | 0.00 | 0.00 | 0.00 | 44 | 1007.4 |
| 20260905220053 | 36 | 360 | 3.2 | 12.9 | 0.00 | 0.00 | 0.00 | 44 | 1007.4 |
| 20260905214552 | 36 | 300 | 1.6 | 9.7 | 0.00 | 0.00 | 0.00 | 44 | 1007.3 |
| 20260905213051 | 36 | 295 | 3.2 | 14.5 | 0.00 | 0.00 | 0.00 | 43 | 1007.4 |
| 20260905211549 | 36 | 286 | 3.2 | 9.7 | 0.00 | 0.00 | 0.00 | 43 | 1007.6 |
| 20260905210048 | 36 | 316 | 4.8 | 14.5 | 0.00 | 0.00 | 0.00 | 43 | 1007.7 |
| 20260905204557 | 37 | 360 | 3.2 | 6.4 | 0.00 | 0.00 | 0.00 | 43 | 1007.8 |
| 20260905203053 | 35 | 19 | 0.0 | 3.2 | 0.00 | 0.00 | 0.00 | 46 | 1008.2 |
| 20260905201545 | 36 | 318 | 4.8 | 14.5 | 0.00 | 0.00 | 0.00 | 42 | 1008.5 |
| 20260905200140 | 36 | 298 | 0.0 | 6.4 | 0.00 | 0.00 | 0.00 | 47 | 1008.5 |
| 20260905194545 | 36 | 325 | 0.0 | 11.3 | 0.00 | 0.00 | 0.00 | 45 | 1008.6 |
| 20260905193036 | 36 | 331 | 0.0 | 8.0 | 0.00 | 0.00 | 0.00 | 48 | 1008.9 |
| 20260905191534 | 36 | 360 | 3.2 | 14.5 | 0.00 | 0.00 | 0.00 | 48 | 1009.1 |
| 20260905190035 | 37 | 311 | 3.2 | 14.5 | 0.00 | 0.00 | 0.00 | 44 | 1009.3 |
| 20260905184533 | 36 | 235 | 1.6 | 11.3 | 0.00 | 0.00 | 0.00 | 43 | 1009.5 |
| 20260905183026 | 36 | 294 | 0.0 | 14.5 | 0.00 | 0.00 | 0.00 | 43 | 1009.7 |
| 20260905181533 | 36 | 289 | 1.6 | 8.0 | 0.00 | 0.00 | 0.00 | 45 | 1009.8 |
| 20260905180023 | 36 | 264 | 3.2 | 8.0 | 0.00 | 0.00 | 0.00 | 50 | 1010.0 |
| 20260905174521 | 36 | 38 | 1.6 | 9.7 | 0.00 | 0.00 | 0.00 | 49 | 1010.2 |
| 20260905173020 | 36 | 285 | 3.2 | 11.3 | 0.00 | 0.00 | 0.00 | 48 | 1010.5 |
| 20260905171524 | 35 | 223 | 3.2 | 14.5 | 0.00 | 0.00 | 0.00 | 55 | 1010.7 |
| 20260905170017 | 35 | 295 | 1.6 | 12.9 | 0.00 | 0.00 | 0.00 | 48 | 1010.7 |
| 20260905164515 | 35 | 329 | 0.0 | 6.4 | 0.00 | 0.00 | 0.00 | 48 | 1010.7 |
| 20260905163013 | 35 | 14 | 1.6 | 12.9 | 0.00 | 0.00 | 0.00 | 49 | 1011.0 |
| 20260905161511 | 35 | 30 | 3.2 | 9.7 | 0.00 | 0.00 | 0.00 | 51 | 1011.0 |
| 20260905160032 | 34 | 298 | 1.6 | 8.0 | 0.00 | 0.00 | 0.00 | 54 | 1011.1 |
| 20260905154508 | 34 | 13 | 1.6 | 8.0 | 0.00 | 0.00 | 0.00 | 54 | 1011.2 |
| 20260905153107 | 33 | 296 | 3.2 | 12.9 | 0.00 | 0.00 | 0.00 | 57 | 1011.3 |
| 20260905151505 | 33 | 282 | 0.0 | 0.0 | 0.00 | 0.00 | 0.00 | 56 | 1011.3 |
| 20260905150005 | 33 | 277 | 0.0 | 0.0 | 0.00 | 0.00 | 0.00 | 59 | 1011.4 |
| 20260905144501 | 33 | 302 | 0.0 | 0.0 | 0.00 | 0.00 | 0.00 | 59 | 1011.4 |
| 20260905143059 | 32 | 325 | 0.0 | 0.0 | 0.00 | 0.00 | 0.00 | 62 | 1011.4 |
| 20260905141555 | 31 | 329 | 0.0 | 0.0 | 0.00 | 0.00 | 0.00 | 65 | 1011.5 |
| 20260905140051 | 31 | 288 | 0.0 | 0.0 | 0.00 | 0.00 | 0.00 | 66 | 1011.5 |
| 20260905134552 | 30 | 313 | 0.0 | 0.0 | 0.00 | 0.00 | 0.00 | 70 | 1011.6 |
| 20260905133042 | 29 | 315 | 0.0 | 0.0 | 0.00 | 0.00 | 0.00 | 73 | 1011.7 |
| 20260905131548 | 28 | 302 | 0.0 | 0.0 | 0.00 | 0.00 | 0.00 | 77 | 1011.7 |
| 20260905130035 | 27 | 227 | 0.0 | 0.0 | 0.00 | 0.00 | 0.00 | 79 | 1011.7 |
| 20260905124536 | 26 | 227 | 0.0 | 0.0 | 0.00 | 0.00 | 0.00 | 82 | 1011.7 |
| 20260905123028 | 25 | 226 | 0.0 | 0.0 | 0.00 | 0.00 | 0.00 | 86 | 1011.6 |